RH
3 3 4 7 10 15 26 24 91 100 100 100 100 100 100 100 85 53 41 39 36 37 34 23 12 12 9 6 3 3 3 4 3 3 4 4 7 8 11 16 22 23 48 49
3 4 7 9 12 14 19 50 100 100 100 100 100 100 100 91 64 44 42 39 40 41 44 33 22 12 10 9 6 4 4 5 4 3 3 5 5 10 12 17 16 28 33 45
5 6 9 12 13 17 35 89 100 100 100 100 100 100 100 78 46 44 46 43 42 44 50 40 34 16 10 10 12 8 6 5 6 6 5 5 6 9 16 17 17 20 27 46
6 9 11 12 14 26 68 100 99 100 100 100 100 100 86 62 44 48 45 47 43 46 48 57 51 28 16 12 14 14 12 9 6 6 7 5 6 9 11 16 20 25 29 38
8 11 12 16 30 72 100 93 97 100 100 100 100 96 78 51 47 52 48 48 46 44 45 62 72 44 39 19 22 21 16 16 12 7 6 9 7 7 9 9 13 26 35 41
9 9 9 14 63 95 92 95 100 100 100 100 100 83 65 50 49 48 48 47 47 45 47 52 58 60 61 41 37 34 29 22 16 14 11 7 9 10 8 8 10 15 27 40
11 11 28 62 80 80 90 100 100 100 100 100 98 76 60 52 53 51 46 48 49 44 51 48 56 61 66 62 61 63 47 36 30 19 18 17 8 8 12 11 10 10 13 19
10 16 50 79 76 78 94 100 100 100 100 100 92 69 60 60 51 47 46 49 45 43 48 45 48 51 56 57 64 65 66 61 48 34 29 25 16 12 8 9 15 16 15 15
20 33 68 68 74 88 100 100 100 100 100 100 82 70 66 59 52 49 49 50 48 46 43 44 45 47 52 51 54 67 71 73 68 55 44 40 29 25 19 14 10 8 13 16
24 45 70 82 87 98 100 100 100 100 100 90 81 72 69 57 50 50 51 47 48 47 46 44 46 46 52 48 50 61 76 71 68 62 62 46 44 34 28 26 22 16 10 10
49 69 86 82 90 100 100 100 100 100 97 84 78 72 71 56 52 53 49 49 45 48 49 46 46 50 47 52 51 52 53 55 66 69 63 69 56 45 42 30 29 28 25 14
52 71 68 80 91 100 100 100 100 98 98 80 86 79 74 60 54 55 51 51 49 49 48 49 48 44 51 58 54 56 53 54 55 70 68 72 65 56 52 51 44 36 31 26
75 75 63 85 99 100 100 100 100 93 100 85 92 79 77 69 59 55 54 50 48 50 50 51 50 50 48 58 61 57 57 57 53 59 67 67 70 68 78 69 67 63 52 33
79 67 76 85 100 100 100 100 100 100 100 87 83 88 83 79 70 60 53 51 50 48 48 51 52 51 51 48 54 56 62 61 56 60 59 77 71 74 71 61 70 57 61 74
78 78 86 90 86 100 100 100 100 100 100 100 95 96 84 87 79 70 58 52 53 53 48 53 56 51 48 54 54 59 57 54 61 59 56 64 70 75 74 88 80 81 61 67
73 82 91 93 94 100 100 99 100 100 100 100 100 100 94 86 82 72 62 55 56 55 53 53 56 54 55 51 58 50 54 58 57 62 60 60 60 68 69 73 76 86 90 83
67 93 97 99 100 100 99 94 93 95 100 100 100 99 98 96 86 74 69 58 56 56 57 57 55 58 55 51 54 51 50 56 59 59 64 62 63 60 74 68 88 85 85 70
57 87 87 99 100 100 99 93 92 96 100 100 100 99 100 100 96 89 81 71 66 60 60 57 58 54 55 50 51 54 54 49 56 61 60 61 62 61 69 76 81 88 95 77
69 88 86 99 100 100 100 99 98 99 100 97 96 100 100 100 100 100 96 83 75 61 61 62 61 57 59 52 49 49 51 55 53 60 61 56 62 64 64 72 76 96 84 98
73 80 99 95 100 100 99 100 91 95 100 94 94 100 100 98 98 98 97 89 79 76 63 63 63 63 59 54 54 57 49 55 56 54 58 60 69 69 64 66 82 89 92 95
81 81 90 100 100 100 100 100 100 99 92 94 91 91 96 91 91 94 98 91 83 79 70 69 70 69 73 57 53 60 54 53 58 54 54 63 65 69 73 71 76 90 96 99
86 75 90 97 100 100 100 100 100 100 100 100 94 97 93 88 87 96 99 99 96 86 76 80 78 82 77 66 59 55 58 56 53 54 56 64 64 68 68 72 78 84 85 99
93 71 75 95 96 100 100 100 100 100 100 87 88 99 96 91 100 100 98 99 97 88 83 84 87 89 77 76 64 56 62 54 54 59 58 61 66 67 65 79 84 82 92 98
98 81 70 82 91 100 100 100 100 100 88 94 96 99 100 100 100 99 97 97 98 92 96 84 95 88 86 84 65 58 57 62 57 60 58 60 60 64 68 72 82 86 85 99
100 91 81 91 99 100 100 100 100 100 94 100 100 100 99 100 100 100 97 95 94 95 96 97 92 81 80 83 71 67 65 58 56 64 60 62 67 66 67 72 85 88 93 100
96 88 98 100 100 100 100 100 100 100 100 100 100 100 100 100 100 100 96 90 90 87 84 85 82 74 74 85 76 67 66 58 66 66 61 67 69 67 70 78 90 78 90 93
93 91 95 100 100 100 100 100 100 100 100 100 100 100 100 98 100 96 97 100 99 96 87 79 72 74 85 80 73 68 63 60 66 72 64 66 69 69 67 82 98 89 94 97
Wind_Speed
31 39 46 54 60 61 60 57 55 49 44 38 31 23 16 11 3 3 13 22 30 39 51 59 57 57 58 53 41 35 26 20 13 9 6 8 14 19 26 33 40 48 63 71
35 44 48 51 59 61 58 59 58 52 44 39 31 23 17 11 5 6 14 22 29 36 47 56 62 59 59 59 57 44 35 27 18 12 9 8 14 19 26 33 38 48 51 62
50 52 51 52 57 56 59 63 58 50 44 37 30 24 18 12 9 10 18 23 27 35 46 55 64 63 62 64 70 62 50 38 28 21 15 9 9 19 26 33 35 39 47 60
52 51 52 53 55 57 64 62 56 50 45 37 30 24 19 14 13 14 18 24 27 33 42 54 60 66 72 67 71 73 67 54 41 29 21 13 8 15 24 28 33 38 45 53
53 54 55 59 61 64 63 58 53 48 40 35 31 25 20 15 15 15 18 22 26 29 36 50 62 64 69 70 74 74 70 69 58 44 32 20 11 6 20 22 28 34 40 45
43 43 48 53 66 67 60 54 50 44 39 36 29 25 21 17 14 16 18 22 27 29 35 43 54 59 65 67 70 73 74 74 68 63 51 37 21 10 2 8 19 28 35 41
41 47 58 64 64 65 59 51 44 41 39 34 28 25 21 16 13 16 18 22 27 29 35 39 47 56 64 68 68 69 68 72 72 69 64 58 38 23 11 5 9 16 26 35
35 43 62 68 65 60 55 48 43 41 39 33 29 25 20 15 15 16 17 21 24 30 32 38 42 45 52 59 64 64 66 68 66 67 68 69 58 46 32 18 6 8 18 25
41 52 64 62 61 56 52 45 41 41 38 33 29 24 19 15 15 16 17 21 24 29 32 33 36 40 47 49 58 62 59 64 64 63 61 62 58 59 52 40 25 13 9 15
40 56 63 62 59 53 48 42 42 40 37 32 27 23 18 15 15 14 15 19 24 28 31 34 37 38 44 43 50 59 61 54 60 62 63 61 58 57 58 51 45 32 20 15
55 64 62 58 55 52 44 42 41 39 35 30 26 22 17 14 12 12 12 16 22 25 28 35 37 44 44 40 41 50 56 61 62 56 58 66 57 58 58 54 53 48 40 24
57 61 61 56 52 49 42 42 41 37 33 28 25 22 17 13 9 8 10 15 19 22 25 29 34 38 41 47 42 48 48 55 61 60 60 60 57 59 56 56 56 52 49 45
59 59 57 54 50 46 43 41 39 35 30 28 24 20 17 12 7 5 8 11 15 19 23 27 30 35 38 42 46 48 47 48 57 60 61 56 62 64 59 60 59 58 54 51
59 56 53 52 51 45 43 40 38 34 30 26 23 20 16 11 6 3 4 8 13 18 21 23 29 32 37 38 42 45 49 52 53 55 58 57 55 62 55 61 67 55 55 58
58 54 50 48 50 47 43 40 37 34 29 25 22 19 16 12 7 3 1 6 11 15 19 22 26 30 33 37 39 43 46 49 51 53 55 58 62 55 66 72 67 71 58 56
59 53 50 48 48 46 42 40 37 35 31 26 23 20 16 13 10 6 4 4 9 14 16 19 24 25 30 35 38 41 45 47 50 51 56 58 60 65 67 61 72 72 74 67
58 54 50 50 48 45 42 39 36 34 30 27 24 20 17 13 10 8 5 4 7 11 15 17 21 25 29 32 37 40 43 46 49 52 54 59 61 62 65 62 72 75 75 65
56 53 52 51 48 45 41 38 34 32 28 26 25 21 18 16 13 11 9 8 9 10 13 16 20 22 26 31 34 38 42 46 47 51 54 59 62 64 68 65 75 77 83 70
57 53 50 51 48 46 43 39 35 32 30 29 26 24 20 18 17 13 12 12 12 13 15 16 19 22 26 30 33 37 41 43 48 51 54 56 60 62 67 65 73 77 80 79
59 54 52 50 50 48 43 39 36 35 34 30 29 25 24 21 20 17 16 15 15 17 18 18 20 22 26 30 34 35 39 44 46 51 53 55 58 63 66 70 71 76 79 81
60 55 52 49 50 48 43 40 39 34 33 32 31 28 26 24 21 19 18 16 15 18 20 21 24 26 29 31 34 37 41 45 48 52 57 58 60 65 68 71 76 79 79 83
63 59 56 52 49 47 45 42 40 38 35 33 33 30 28 25 22 20 20 19 19 19 21 25 25 29 32 35 37 39 42 45 50 53 57 60 61 66 69 72 78 80 78 87
67 61 57 54 51 46 42 40 42 44 43 37 35 33 31 25 23 25 24 25 24 24 25 27 29 31 34 37 39 42 43 48 52 55 59 63 66 68 73 75 78 81 86 89
71 64 56 52 45 43 47 50 51 49 42 40 39 37 33 29 29 28 28 30 29 30 32 31 32 33 35 38 42 46 49 49 54 57 61 64 66 69 74 78 79 85 88 94
72 68 57 53 47 48 48 50 50 46 43 42 42 39 35 32 31 30 32 33 33 34 36 36 35 36 39 41 44 48 50 53 57 57 63 66 68 72 76 81 84 88 90 95
72 68 62 59 56 51 52 50 50 46 41 40 41 40 38 36 33 35 36 35 36 38 38 39 40 42 45 47 48 51 53 57 58 62 65 69 70 75 78 83 86 92 98 95
72 70 65 62 56 54 55 51 50 46 44 44 40 38 38 37 36 38 35 37 39 42 42 43 45 46 49 52 52 55 58 61 62 65 68 72 73 77 82 87 88 94 98 100
Wind_Direction
187 176 167 165 162 161 158 161 147 148 155 154 160 172 186 192 184 343 347 351 352 347 345 342 1 20 23 26 23 22 23 30 50 95 138 164 170 189 194 197 200 196 194 200
167 155 156 160 163 162 161 151 146 153 152 151 163 170 177 167 147 49 15 9 7 4 357 349 356 16 32 37 37 34 38 39 45 61 90 146 175 186 199 203 206 205 205 204
153 148 152 162 162 157 152 142 147 149 146 154 161 171 165 153 117 64 33 26 17 16 10 1 1 10 27 41 44 42 40 39 41 50 64 104 178 181 202 208 215 212 213 210
145 146 154 160 160 153 144 144 149 144 149 156 165 163 157 144 104 70 46 40 30 29 25 20 16 12 22 33 39 43 44 40 40 44 53 75 125 188 198 207 214 216 219 217
144 150 156 156 152 144 144 146 144 144 151 158 161 158 153 135 107 74 58 45 37 31 35 36 32 23 22 25 30 33 41 43 43 42 43 50 68 144 206 211 206 211 217 218
140 148 155 154 146 146 147 144 143 148 152 158 159 156 147 131 101 81 62 51 43 42 44 43 40 33 33 27 29 29 33 38 43 45 44 42 38 39 84 218 224 219 220 222
155 155 150 148 149 147 144 144 148 149 152 158 158 156 146 128 104 81 73 54 44 46 47 48 48 43 45 40 37 35 32 32 35 39 43 41 41 39 25 348 259 239 236 234
164 157 151 149 150 145 143 147 153 152 156 156 159 156 145 129 105 87 72 60 51 46 49 49 49 44 45 43 40 40 37 37 36 30 34 39 42 41 38 30 349 275 254 249
163 158 154 150 147 145 144 151 154 156 157 158 161 155 146 131 108 87 75 60 54 47 50 46 49 49 50 47 43 42 43 43 42 31 34 35 34 36 39 35 29 2 302 266
165 158 154 151 147 145 151 156 158 161 161 162 159 156 149 138 114 93 76 63 58 46 45 49 53 50 49 53 51 48 50 42 39 38 39 33 31 32 36 36 38 29 6 329
161 158 155 153 148 149 156 159 162 166 165 163 162 159 153 143 123 99 78 60 57 48 42 47 53 51 48 52 47 43 45 45 44 37 38 41 36 33 32 32 34 36 33 23
166 161 160 152 150 154 160 163 167 169 166 167 163 162 157 146 128 98 68 55 53 49 47 42 41 45 46 47 46 45 47 44 43 44 42 39 38 34 33 25 27 28 28 27
164 166 161 154 153 158 163 168 171 172 171 171 168 166 161 156 139 95 68 60 57 53 46 38 37 37 39 40 43 41 41 41 41 42 39 38 43 44 42 39 36 35 25 23
168 169 162 158 158 161 167 170 174 173 177 176 176 173 168 161 163 130 60 39 44 45 44 39 38 35 33 32 34 39 36 38 35 35 33 37 38 39 36 34 31 31 29 30
172 168 162 163 160 165 173 175 176 176 179 180 181 179 178 174 176 181 250 15 15 24 33 27 28 29 30 29 27 31 32 32 34 32 31 32 32 34 33 30 29 26 28 23
175 167 166 168 166 170 177 180 177 179 184 185 185 187 190 189 192 205 236 340 356 15 23 22 24 24 19 24 24 26 29 26 25 26 27 26 25 23 25 25 27 23 23 22
176 169 168 171 173 178 181 184 184 183 183 191 193 197 203 209 216 220 248 286 332 358 6 13 14 10 12 13 16 16 20 20 19 19 21 20 20 19 22 22 21 18 16 19
182 173 174 174 176 184 189 190 190 190 192 198 200 203 211 219 229 241 261 277 297 324 346 353 357 2 3 8 8 10 12 13 14 13 16 17 16 16 12 20 16 17 15 14
185 178 178 178 182 190 198 196 196 199 202 205 206 210 212 221 229 240 254 266 285 302 318 332 338 348 354 359 1 1 4 5 6 6 9 11 10 11 8 12 12 13 12 9
190 182 181 182 186 192 198 202 207 202 209 215 217 218 223 228 233 238 250 261 276 292 304 319 327 337 344 350 352 352 357 358 0 1 360 5 5 3 5 6 7 7 8 8
194 190 187 187 190 196 200 203 211 216 215 218 224 226 229 230 234 240 251 262 270 285 298 309 320 328 331 339 346 347 350 352 353 356 356 356 358 360 358 1 1 4 4 3
202 196 195 193 194 197 202 206 212 218 224 228 231 233 238 236 239 252 261 271 274 279 291 300 310 320 325 331 337 341 344 346 350 350 350 351 353 356 355 356 356 2 2 0
207 204 199 199 200 201 205 210 218 220 224 229 234 237 243 244 254 262 267 272 277 281 287 292 301 308 318 326 330 336 338 343 344 346 347 348 348 349 350 351 354 360 360 1
209 209 203 207 203 200 208 216 220 224 229 232 236 240 245 250 258 260 267 273 280 286 288 291 295 303 312 320 326 328 334 338 339 341 343 342 347 347 347 347 351 357 357 357
208 210 205 208 206 208 215 220 225 228 232 235 238 244 249 255 258 262 265 272 279 283 289 292 296 304 312 319 322 324 332 333 333 336 338 338 343 345 345 345 348 352 352 354
210 210 208 212 210 213 218 224 227 231 235 238 243 246 250 249 254 262 268 273 277 282 285 290 297 304 311 316 318 322 326 329 329 331 336 337 340 342 343 345 350 352 351 353
211 213 210 214 215 217 221 223 225 232 238 240 245 247 253 254 256 263 270 275 278 280 285 290 295 302 307 311 315 320 323 325 327 327 335 335 337 340 342 344 347 350 349 350